This is the latest recevied weather packets stored in our database for station/object KD6VLN-14. If no packets are shown the sender has not sent any weather packets the latest 1 day(s).
| Time | Temp. | Humidity | Pressure | Rain* | Wind** | Luminosity | Snow |
|---|---|---|---|---|---|---|---|
| 1778026340 | 23.33° C | 36% | - | 0 mm | 4.47 m/s, 242° | - | - |
| 1778026148 | 23.33° C | 36% | - | 0 mm | 4.47 m/s, 242° | - | - |
| 1778025962 | 24.44° C | 36% | - | 0 mm | 4.47 m/s, 242° | - | - |
| 1778025848 | 24.44° C | 36% | - | 0 mm | 4.47 m/s, 242° | - | - |
| 1778025709 | 25° C | 37% | - | 0 mm | 4.47 m/s, 235° | - | - |
| 1778025548 | 25° C | 37% | - | 0 mm | 4.47 m/s, 235° | - | - |
| 1778025425 | 24.44° C | 37% | - | 0 mm | 4.02 m/s, 264° | - | - |
| 1778025248 | 24.44° C | 37% | - | 0 mm | 4.02 m/s, 264° | - | - |
| 1778025089 | 24.44° C | 36% | - | 0 mm | 4.02 m/s, 243° | - | - |
| 1778024948 | 24.44° C | 36% | - | 0 mm | 4.02 m/s, 243° | - | - |
| 1778024815 | 25° C | 36% | - | 0 mm | 4.92 m/s, 231° | - | - |
| 1778024648 | 25° C | 36% | - | 0 mm | 4.92 m/s, 231° | - | - |
| 1778024537 | 24.44° C | 36% | - | 0 mm | 4.47 m/s, 241° | - | - |
| 1778024348 | 24.44° C | 36% | - | 0 mm | 4.47 m/s, 241° | - | - |
| 1778024190 | 24.44° C | 36% | - | 0 mm | 4.47 m/s, 266° | - | - |
| 1778024048 | 24.44° C | 36% | - | 0 mm | 4.47 m/s, 266° | - | - |
| 1778023940 | 25° C | 36% | - | 0 mm | 5.36 m/s, 263° | - | - |
| 1778023748 | 25° C | 36% | - | 0 mm | 5.36 m/s, 263° | - | - |
| 1778023644 | 25.56° C | 36% | - | 0 mm | 4.02 m/s, 252° | - | - |
| 1778023449 | 25.56° C | 36% | - | 0 mm | 4.02 m/s, 252° | - | - |
| 1778023366 | 25° C | 36% | - | 0 mm | 4.92 m/s, 240° | - | - |
| 1778023148 | 25° C | 36% | - | 0 mm | 4.92 m/s, 240° | - | - |
| 1778023028 | 24.44° C | 36% | - | 0 mm | 4.47 m/s, 237° | - | - |
| 1778022848 | 24.44° C | 36% | - | 0 mm | 4.47 m/s, 237° | - | - |
| 1778022691 | 23.89° C | 36% | - | 0 mm | 4.92 m/s, 223° | - | - |
* Rain latest hour (hover to see other rain measurements)
** Current wind speed in m/s (hover to see current wind gust speed)